Location: Heathcote
(40.9845°N, 73.7746°W)
Time: 04:18:52
(UTC+00:00)

Cosmos 1315 Rocket - Pass Details

Date: 29 October 2020
Orbit: 530 x 567 km, 81.2° (Epoch: 23 November)

Event Time Altitude Azimuth Distance (km) Brightness Sun altitude
Rises 22:26:11 0° 152° (SSE) 2,673 6.2 -6.7°
Reaches altitude 10° 22:28:48 10° 134° (SE) 1,794 5.1 -7.2°
Maximum altitude 22:31:34 19° 89° (E) 1,344 4.2 -7.7°
Drops below altitude 10° 22:34:23 10° 44° (NE) 1,820 5.0 -8.2°
Sets 22:37:03 0° 27° (NNE) 2,727 6.0 -8.7°
